Weather Roundup
Issued by NWS

Home | Current Version | Previous Version | Graphics & Text | Print | Product List | Glossary Off
Versions: 1 2 3 4 5 6 7 8 9 10 11 12 13 14 15 16 17 18 19 20 21 22 23 24 25 26 27 28 29 30 31 32 33 34 35 36 37 38 39 40 41 42 43 44 45 46 47 48 49 50

000
NZUS93 KARX 041559
HRRWXR

CURRENT HOURLY OBSERVATIONS ACROSS
MUCH OF THE UPPER MISSISSIPPI VALLEY
NATIONAL WEATHER SERVICE LA CROSSE WI
1100 AM CDT TUE AUG 04 2015


...SOUTHEAST MINNESOTA...


CITY           SKY/WX    TMP DP  RH WIND       PRES   REMARKS
ROCHESTER      PTSUNNY   71  58  63 W7        30.05S
ROCHESTER/MAYO FAIR      72  53  50 W7        30.04S
WINONA         MOSUNNY   73  54  49 W6        30.02R
AUSTIN         CLOUDY    72  55  56 NW5       30.04F
ALBERT LEA     CLOUDY    72  52  49 N3        30.04F
DODGE CENTER   PTSUNNY   70  55  60 W7        30.05S
PRESTON        PTSUNNY   70  52  52 CALM      30.05R
OWATONNA       PTSUNNY   72  54  53 W5        30.04F
FARIBAULT      PTSUNNY   73  61  64 SW7       30.04S
$$

...ELSEWHERE IN MINNESOTA...


CITY           SKY/WX    TMP DP  RH WIND       PRES   REMARKS
MINNEAPOLIS    MOSUNNY   75  52  44 NW10      30.01S
INTNL FALLS    CLOUDY    59  50  72 N8        30.02R
DULUTH         CLOUDY    67  52  58 NW7       29.98S
RED WING       MOSUNNY   75  50  41 NW7       30.00S
REDWOOD FALLS  PTSUNNY   75  52  44 SW8       30.02F
MANKATO        PTSUNNY   72  54  53 W6        30.04F
WORTHINGTON    PTSUNNY   70  54  56 E6        30.04F
FAIRMONT       CLOUDY    73  48  40 CALM      30.04F
$$

...SOUTHWEST WISCONSIN...


CITY           SKY/WX    TMP DP  RH WIND       PRES   REMARKS
LA CROSSE      SUNNY     75  53  46 CALM      30.01R
PRAIRIE DU CHI PTSUNNY   73  50  45 NW5       30.02S
BOSCOBEL       MOSUNNY   78  53  41 VRB5      30.01F
LONE ROCK      NOT AVBL
PLATTEVILLE    MOSUNNY   73  55  53 N5        30.03R
FORT MC COY    SUNNY     73  49  42 SW5       30.01S
VIROQUA        FAIR      71  51  48 NW5       30.03S
WIS DELLS      SUNNY     73  46  39 N8        30.00S
$$

...ELSEWHERE IN WISCONSIN...


CITY           SKY/WX    TMP DP  RH WIND       PRES   REMARKS
MILWAUKEE      MOSUNNY   77  52  41 W14G20    29.96R
MADISON        PTSUNNY   74  53  48 NW8       29.99S
GREEN BAY      MOSUNNY   71  56  58 NW13      29.94F
EAU CLAIRE     NOT AVBL
BLACK RVR FLS  FAIR      74  47  38 W10       30.00R
MEDFORD        MOSUNNY   69  54  58 NW10G16   30.00S
WAUSAU         MOSUNNY   71  49  45 NW18G26   29.96F
WIS RAPIDS     MOSUNNY   73  48  41 NW12G22   30.00R
MARSHFIELD     MOSUNNY   72  51  47 NW15      29.99S
RICE LAKE      SUNNY     70  53  54 NW6       30.02S
$$

...NORTHEAST IOWA...


CITY           SKY/WX    TMP DP  RH WIND       PRES   REMARKS
DECORAH        PTSUNNY   70  55  60 CALM      30.03S
MASON CITY     CLOUDY    75  53  46 NW6       30.06S
CHARLES CITY   CLOUDY    70  59  68 VRB3      30.05S
OELWEIN        CLOUDY    70  59  68 CALM      30.04S
$$

...ELSEWHERE IN IOWA...


CITY           SKY/WX    TMP DP  RH WIND       PRES   REMARKS
DES MOINES     CLOUDY    73  58  59 CALM      30.04S
IOWA CITY      PTSUNNY   76  60  57 W6        30.03F
FORT DODGE     CLOUDY    72  59  64 E6        30.06S
$$

...NORTHERN ILLINOIS...


CITY           SKY/WX    TMP DP  RH WIND       PRES   REMARKS
CHICAGO-OHARE  PTSUNNY   78  50  37 W15G21    29.97S
CHICAGO-MIDWAY PTSUNNY   80  51  36 NW8       29.97F
MOLINE         PTSUNNY   79  60  52 NW8       30.00F
ROCKFORD       PTSUNNY   78  55  44 W8        30.01R
PEORIA         PTSUNNY   81  57  43 W3        30.01S
$$

NOTE: "FAIR" INDICATES FEW OR NO CLOUDS BELOW 12,000 FEET WITH NO
SIGNIFICANT WEATHER AND/OR OBSTRUCTIONS TO VISIBILITY. WIND
SPEEDS ARE IN MILES-PER-HOUR.



USA.gov is the U.S. government's official web portal to all federal, state and local government web resources and services.